When you browse on this site, cookies collect data to enhance your experience and personalize the content and advertising you see.
Visit our Privacy Policy to learn more. By continuing to use the site, you agree to this use of cookies and data.
  • In Hungary
  • List of Countries
  • For 7 days
  • Water Temperature
  • Satellite Maps
  • Weather Map
  • News
  • Weather Widgets
  • user-avatar
    Login

    Hourly Weather Abancay

    Today, 27 June, Thursday

    Time Temperature Precipitation Wind Pressure Humidity
    00:00 +8°C° 0 mm 0 mps 542 mmHg 88%
    01:00 +8°C° 0 mm 0 mps 541 mmHg 88%
    02:00 +8°C° 0 mm 0 mps 541 mmHg 88%
    03:00 +8°C° 0 mm 0 mps 541 mmHg 88%
    04:00 +8°C° 0 mm 0 mps 541 mmHg 88%
    05:00 +8°C° 0 mm 0 mps 542 mmHg 87%
    06:00 +8°C° 0 mm 0 mps 542 mmHg 86%
    07:00 +9°C° 0 mm 0 mps 543 mmHg 85%
    08:00 +12°C° 0 mm 1 mps 544 mmHg 76%
    09:00 +14°C° 0 mm 1 mps 545 mmHg 66%
    10:00 +16°C° 0 mm 1 mps 546 mmHg 57%
    11:00 +17°C° 0 mm 2 mps 545 mmHg 54%
    12:00 +18°C° 0 mm 2 mps 545 mmHg 51%
    13:00 +19°C° 0 mm 3 mps 545 mmHg 48%
    14:00 +19°C° 0.1 mm 3 mps 544 mmHg 50%
    15:00 +19°C° 0.1 mm 2 mps 544 mmHg 52%
    16:00 +18°C° 0.1 mm 2 mps 543 mmHg 53%
    17:00 +16°C° 0 mm 2 mps 543 mmHg 63%
    18:00 +14°C° 0 mm 2 mps 542 mmHg 74%
    19:00 +12°C° 0 mm 1 mps 542 mmHg 84%
    20:00 +12°C° 0 mm 1 mps 542 mmHg 85%
    21:00 +11°C° 0 mm 1 mps 542 mmHg 87%
    22:00 +11°C° 0 mm 1 mps 543 mmHg 88%
    23:00 +11°C° 0 mm 1 mps 543 mmHg 89%

    Tomorrow, 28 June, Friday

    Time Temperature Precipitation Wind Pressure Humidity
    00:00 +11°C° 0 mm 1 mps 543 mmHg 90%
    01:00 +10°C° 0 mm 0 mps 543 mmHg 91%
    02:00 +10°C° 0 mm 0 mps 543 mmHg 90%
    03:00 +10°C° 0 mm 0 mps 542 mmHg 89%
    04:00 +9°C° 0 mm 0 mps 542 mmHg 87%
    05:00 +10°C° 0 mm 0 mps 543 mmHg 86%
    06:00 +10°C° 0 mm 0 mps 543 mmHg 84%
    07:00 +10°C° 0 mm 0 mps 543 mmHg 83%
    08:00 +13°C° 0 mm 1 mps 544 mmHg 76%
    09:00 +14°C° 0 mm 1 mps 545 mmHg 69%
    10:00 +16°C° 0 mm 1 mps 546 mmHg 62%
    11:00 +17°C° 0 mm 2 mps 546 mmHg 59%
    12:00 +18°C° 0 mm 2 mps 546 mmHg 56%
    13:00 +19°C° 0 mm 2 mps 546 mmHg 53%
    14:00 +18°C° 0.2 mm 3 mps 545 mmHg 56%
    15:00 +18°C° 0.2 mm 3 mps 544 mmHg 60%
    16:00 +17°C° 0.2 mm 3 mps 544 mmHg 64%
    17:00 +15°C° 0.2 mm 2 mps 543 mmHg 73%
    18:00 +13°C° 0.2 mm 2 mps 543 mmHg 83%
    19:00 +12°C° 0.2 mm 1 mps 542 mmHg 93%
    20:00 +11°C° 0 mm 1 mps 543 mmHg 93%
    21:00 +11°C° 0 mm 1 mps 543 mmHg 93%
    22:00 +11°C° 0 mm 1 mps 544 mmHg 93%
    23:00 +11°C° 0.1 mm 1 mps 544 mmHg 93%

    Day after tomorrow, 29 June, Saturday

    Time Temperature Precipitation Wind Pressure Humidity
    00:00 +11°C° 0.1 mm 1 mps 544 mmHg 93%
    01:00 +11°C° 0.1 mm 1 mps 544 mmHg 93%
    02:00 +11°C° 0.5 mm 1 mps 544 mmHg 93%
    03:00 +11°C° 0.5 mm 1 mps 543 mmHg 94%
    04:00 +10°C° 0.5 mm 0 mps 543 mmHg 94%
    05:00 +11°C° 0.4 mm 1 mps 543 mmHg 93%
    06:00 +11°C° 0.4 mm 1 mps 544 mmHg 92%
    07:00 +12°C° 0.4 mm 1 mps 544 mmHg 91%
    08:00 +12°C° 0.4 mm 1 mps 545 mmHg 89%
    09:00 +12°C° 0.4 mm 1 mps 545 mmHg 86%
    10:00 +13°C° 0.4 mm 1 mps 545 mmHg 84%
    11:00 +13°C° 1 mm 1 mps 545 mmHg 83%
    12:00 +13°C° 1 mm 2 mps 544 mmHg 83%
    13:00 +13°C° 1 mm 2 mps 544 mmHg 82%
    14:00 +13°C° 0.5 mm 2 mps 544 mmHg 84%
    15:00 +13°C° 0.5 mm 1 mps 543 mmHg 86%
    16:00 +12°C° 0.5 mm 1 mps 543 mmHg 88%
    17:00 +12°C° 0 mm 1 mps 543 mmHg 89%
    18:00 +10°C° 0 mm 0 mps 543 mmHg 91%
    19:00 +10°C° 0 mm 0 mps 543 mmHg 92%
    20:00 +9°C° 0 mm 0 mps 543 mmHg 91%
    21:00 +9°C° 0 mm 0 mps 543 mmHg 90%
    22:00 +9°C° 0 mm 0 mps 543 mmHg 89%
    23:00 +9°C° 0 mm 1 mps 543 mmHg 89%

    30 June, Sunday

    Time Temperature Precipitation Wind Pressure Humidity
    00:00 +9°C° 0 mm 1 mps 543 mmHg 88%
    01:00 +9°C° 0 mm 1 mps 542 mmHg 88%
    02:00 +9°C° 0 mm 1 mps 542 mmHg 88%
    03:00 +9°C° 0 mm 1 mps 542 mmHg 87%
    04:00 +9°C° 0 mm 1 mps 542 mmHg 87%
    05:00 +9°C° 0 mm 1 mps 542 mmHg 86%
    06:00 +9°C° 0 mm 1 mps 543 mmHg 86%
    07:00 +10°C° 0 mm 1 mps 544 mmHg 85%
    08:00 +12°C° 0 mm 1 mps 545 mmHg 76%
    09:00 +14°C° 0 mm 1 mps 546 mmHg 67%
    10:00 +18°C° 0 mm 1 mps 547 mmHg 58%
    11:00 +18°C° 0 mm 2 mps 547 mmHg 54%
    12:00 +19°C° 0 mm 2 mps 547 mmHg 49%
    13:00 +20°C° 0 mm 3 mps 547 mmHg 45%
    14:00 +19°C° 0.1 mm 3 mps 546 mmHg 48%
    15:00 +19°C° 0.1 mm 3 mps 545 mmHg 51%
    16:00 +19°C° 0.1 mm 3 mps 545 mmHg 54%
    17:00 +16°C° 0.1 mm 2 mps 544 mmHg 62%
    18:00 +14°C° 0.1 mm 1 mps 544 mmHg 70%
    19:00 +12°C° 0.1 mm 1 mps 543 mmHg 78%
    20:00 +11°C° 0 mm 1 mps 543 mmHg 79%
    21:00 +11°C° 0 mm 1 mps 543 mmHg 79%
    22:00 +9°C° 0 mm 0 mps 543 mmHg 80%
    23:00 +9°C° 0 mm 0 mps 543 mmHg 80%

    1 July, Monday

    Time Temperature Precipitation Wind Pressure Humidity
    00:00 +9°C° 0 mm 0 mps 543 mmHg 81%
    01:00 +8°C° 0 mm 0 mps 543 mmHg 81%
    02:00 +8°C° 0 mm 0 mps 542 mmHg 80%
    03:00 +8°C° 0 mm 0 mps 542 mmHg 80%
    04:00 +7°C° 0 mm 0 mps 542 mmHg 80%
    05:00 +9°C° 0 mm 1 mps 543 mmHg 79%
    06:00 +9°C° 0 mm 1 mps 544 mmHg 78%
    07:00 +10°C° 0 mm 1 mps 544 mmHg 77%
    08:00 +12°C° 0 mm 1 mps 545 mmHg 68%
    09:00 +14°C° 0 mm 1 mps 547 mmHg 59%
    10:00 +18°C° 0 mm 1 mps 548 mmHg 50%
    11:00 +18°C° 0 mm 2 mps 547 mmHg 46%
    12:00 +19°C° 0 mm 2 mps 547 mmHg 43%
    13:00 +20°C° 0 mm 3 mps 547 mmHg 39%
    14:00 +19°C° 0 mm 3 mps 547 mmHg 42%
    15:00 +19°C° 0 mm 3 mps 546 mmHg 44%
    16:00 +19°C° 0 mm 3 mps 546 mmHg 46%
    17:00 +16°C° 0 mm 2 mps 545 mmHg 59%
    18:00 +14°C° 0 mm 2 mps 544 mmHg 72%
    19:00 +12°C° 0 mm 1 mps 543 mmHg 84%
    20:00 +11°C° 0 mm 1 mps 543 mmHg 87%
    21:00 +11°C° 0 mm 1 mps 543 mmHg 89%
    22:00 +9°C° 0 mm 0 mps 543 mmHg 91%
    23:00 +9°C° 0 mm 0 mps 543 mmHg 91%

    2 July, Tuesday

    Time Temperature Precipitation Wind Pressure Humidity
    00:00 +9°C° 0 mm 0 mps 544 mmHg 91%
    01:00 +9°C° 0 mm 0 mps 544 mmHg 91%
    02:00 +9°C° 0 mm 0 mps 544 mmHg 90%
    03:00 +10°C° 0 mm 0 mps 544 mmHg 90%
    04:00 +10°C° 0 mm 0 mps 544 mmHg 89%
    05:00 +10°C° 0 mm 0 mps 544 mmHg 87%
    06:00 +11°C° 0 mm 1 mps 545 mmHg 85%
    07:00 +11°C° 0 mm 1 mps 545 mmHg 83%
    08:00 +13°C° 0 mm 1 mps 546 mmHg 75%
    09:00 +14°C° 0 mm 1 mps 546 mmHg 66%
    10:00 +16°C° 0 mm 1 mps 547 mmHg 58%
    11:00 +18°C° 0 mm 1 mps 547 mmHg 51%
    12:00 +19°C° 0 mm 2 mps 547 mmHg 43%
    13:00 +20°C° 0 mm 2 mps 547 mmHg 36%
    14:00 +20°C° 0 mm 2 mps 546 mmHg 36%
    15:00 +20°C° 0 mm 2 mps 546 mmHg 35%
    16:00 +20°C° 0 mm 2 mps 545 mmHg 35%
    17:00 +17°C° 0 mm 2 mps 544 mmHg 45%
    18:00 +15°C° 0 mm 1 mps 543 mmHg 55%
    19:00 +12°C° 0 mm 1 mps 542 mmHg 65%
    20:00 +12°C° 0 mm 1 mps 542 mmHg 68%
    21:00 +11°C° 0 mm 1 mps 542 mmHg 71%
    22:00 +10°C° 0 mm 0 mps 542 mmHg 74%
    23:00 +9°C° 0 mm 0 mps 542 mmHg 75%
    Show more